Theta_e
314 315 314 312 310 309 312 316 306 316 318 307 309 302 302 299 303 305 302 301 300 298 299 297 297 297 300 304 303 298 302 298 293 296 303 306 305 303 303 300 299 302 302 302
315 315 314 312 310 310 310 311 311 317 316 301 302 303 302 302 301 301 301 299 301 301 298 294 297 298 303 303 301 298 301 296 291 293 297 302 299 301 303 303 303 301 298 301
315 315 313 312 311 310 311 312 304 310 310 308 303 301 299 298 301 301 300 299 301 298 297 299 295 296 300 302 301 305 302 296 293 290 295 298 297 298 301 300 298 299 302 305
315 315 314 313 311 310 313 311 304 306 300 301 302 302 300 298 296 301 301 298 296 295 293 294 294 297 298 300 303 301 299 292 294 296 297 298 297 297 298 298 301 298 301 305
315 315 314 314 312 310 314 306 306 307 303 303 300 298 297 295 296 297 297 295 297 297 293 294 293 295 296 296 299 299 301 292 295 292 296 296 295 297 297 298 300 302 303 303
314 314 315 314 312 311 312 313 314 309 301 301 300 297 297 296 297 300 299 297 296 295 296 299 300 300 300 299 297 297 297 295 292 288 294 294 290 296 297 298 300 300 297 304
314 314 315 315 314 312 315 313 310 307 300 300 298 297 298 298 298 296 299 300 296 300 305 304 302 301 299 299 298 299 295 294 292 289 291 282 295 301 301 298 299 300 301 302
313 314 314 315 315 313 316 315 312 308 303 303 301 299 299 301 301 300 299 300 302 305 301 295 293 294 294 296 298 297 298 296 290 285 286 291 294 298 298 297 297 302 301 304
313 314 314 315 315 314 317 316 318 312 305 302 304 301 301 298 298 299 299 304 306 303 298 293 288 287 290 290 293 298 297 297 294 289 283 282 293 300 303 302 292 303 307 307
313 314 314 315 316 315 314 316 320 314 306 307 307 302 301 303 300 297 299 301 301 303 294 291 289 288 291 286 286 289 292 293 289 288 286 289 298 299 302 289 293 306 308 308
313 313 313 315 316 315 315 316 320 313 309 308 310 308 305 305 304 297 302 300 300 298 293 290 289 288 291 287 291 290 289 289 289 290 287 284 302 300 294 301 305 305 305 307
313 313 313 314 315 315 314 315 320 319 311 309 315 313 313 310 308 305 303 300 301 301 296 294 292 289 291 289 286 294 288 290 286 291 292 301 302 300 303 303 302 303 304 305
312 312 313 314 314 315 313 317 319 317 311 310 308 306 313 315 312 313 305 306 304 303 304 297 293 288 291 287 288 288 293 294 289 290 295 296 298 301 302 302 302 304 305 305
312 312 312 313 314 315 314 316 320 316 312 305 308 317 312 315 313 312 311 308 308 307 304 300 294 291 296 289 291 287 290 292 289 289 294 293 296 296 297 297 300 302 305 304
311 312 314 314 314 315 314 318 319 320 311 304 307 312 314 314 314 311 310 308 305 304 301 299 296 299 296 296 293 289 294 290 287 286 292 291 291 295 298 299 302 307 305 303
311 312 314 314 314 312 317 313 319 318 318 306 302 313 314 314 313 310 307 308 307 305 301 301 302 302 300 294 288 294 299 298 297 293 296 297 296 297 298 297 299 304 306 307
311 312 314 314 314 314 313 311 315 312 315 307 304 308 314 314 313 310 308 309 307 306 304 303 300 301 301 298 286 298 300 301 300 299 298 294 295 293 297 297 299 303 304 304
310 311 313 312 313 312 313 316 312 312 311 310 303 303 310 314 306 303 309 306 306 305 304 304 301 300 300 289 299 301 301 301 300 300 300 298 298 298 298 299 298 296 298 301
310 312 312 315 311 313 317 313 313 316 311 303 305 302 298 313 310 308 306 307 303 307 304 302 303 293 286 295 299 301 301 300 300 300 300 299 297 297 297 298 297 295 295 298
311 313 313 310 318 314 313 311 307 307 308 309 306 310 303 309 309 306 306 303 301 298 301 304 300 292 303 304 302 305 305 303 303 298 296 298 297 298 298 298 298 298 298 298
315 317 316 320 313 316 311 309 308 310 306 310 310 309 305 312 306 306 308 303 304 295 299 298 298 297 300 303 302 306 306 304 303 302 303 301 301 299 299 300 299 298 298 298
315 314 318 321 315 312 308 307 308 305 303 311 307 309 310 309 313 308 307 301 301 293 303 298 290 301 304 303 303 303 306 306 304 303 303 303 302 302 301 301 301 299 299 299
322 318 314 313 312 297 302 299 303 297 305 310 308 305 309 310 313 307 304 296 295 304 297 292 298 304 304 305 304 304 305 306 306 304 305 304 303 304 303 302 303 303 300 300
316 312 296 306 304 305 304 306 306 311 309 310 307 305 306 306 297 298 296 300 300 293 290 292 298 299 304 305 306 305 304 304 305 304 304 303 304 304 305 304 304 303 302 302
313 312 298 305 309 310 312 313 310 311 313 311 308 305 304 299 294 297 297 293 291 293 293 297 303 307 307 305 304 304 304 304 303 304 304 304 303 303 304 304 305 304 304 303
315 313 308 311 310 309 312 308 309 313 312 310 306 300 298 297 299 295 293 292 290 294 298 301 305 307 306 306 305 305 305 305 305 304 304 304 304 303 303 304 305 305 304 303
312 310 315 311 311 308 308 311 309 313 309 303 304 298 297 302 296 294 298 292 296 300 301 304 309 307 306 306 306 306 305 305 305 306 305 304 304 306 304 303 306 304 305 304
Wind_Speed
19 19 19 20 20 27 13 8 3 7 5 7 2 10 8 3 9 6 5 4 6 7 10 13 16 14 15 13 10 15 10 12 16 19 23 15 15 18 22 15 18 17 19 17
18 18 18 18 17 15 9 7 4 5 10 4 5 4 7 8 11 9 12 9 10 11 11 8 8 11 13 13 11 6 11 12 12 17 18 22 15 23 24 22 22 19 17 18
16 17 17 18 16 12 8 8 2 5 6 9 10 4 7 5 7 9 8 6 9 8 10 8 8 9 7 4 5 10 11 13 17 16 15 15 15 20 20 24 17 18 19 19
16 16 18 19 19 16 6 4 8 5 9 11 10 11 11 11 8 10 8 2 4 7 6 12 12 10 10 12 8 8 8 16 20 22 27 20 21 19 15 22 21 21 18 22
16 15 17 19 19 23 3 7 6 7 7 5 6 5 6 7 9 6 6 6 11 10 4 9 16 14 14 9 10 7 9 10 19 20 22 21 24 22 20 22 29 23 23 20
15 15 17 18 19 17 5 3 1 4 5 7 5 7 9 6 4 8 2 8 8 10 10 10 13 14 15 17 11 13 6 5 8 17 18 21 22 24 19 18 18 13 18 19
14 15 15 16 18 16 5 4 5 2 4 6 7 3 7 4 4 5 7 4 6 8 15 17 16 18 19 20 20 15 10 6 1 8 11 14 16 18 20 21 20 19 21 20
12 13 13 14 15 16 5 3 5 6 8 9 7 5 4 7 7 10 4 6 9 10 13 9 11 6 11 16 18 18 16 12 6 4 10 17 18 14 8 13 18 15 14 15
11 11 10 11 13 14 8 7 7 4 3 9 1 4 3 6 9 2 2 6 7 10 5 4 5 4 8 4 6 10 14 13 8 9 8 10 15 11 11 11 10 8 12 16
10 9 8 9 10 12 7 4 5 6 5 7 7 7 6 4 3 5 5 8 3 6 5 3 3 4 2 5 7 9 7 7 14 11 12 12 12 1 9 10 6 10 11 13
8 6 5 6 8 10 7 4 4 6 5 5 8 4 7 3 2 3 8 2 1 4 5 4 5 4 4 4 7 9 6 6 5 10 13 16 14 5 11 11 15 15 14 14
7 3 3 4 6 8 7 4 2 4 5 6 10 4 3 4 3 3 2 5 5 3 2 3 2 2 3 5 3 9 2 4 5 6 5 14 15 17 18 15 17 20 20 15
6 3 3 3 5 6 5 6 5 4 6 3 4 5 2 2 3 7 1 1 4 1 4 2 1 2 1 4 4 3 4 5 4 9 6 19 18 18 16 15 17 20 21 16
5 3 4 5 5 7 7 7 4 4 6 4 3 6 3 1 5 3 1 3 3 4 4 3 2 2 4 2 4 2 3 9 5 6 9 18 8 17 18 22 23 23 22 14
5 6 7 7 5 5 8 8 6 2 4 4 7 4 7 8 6 2 6 8 3 5 5 3 4 4 4 3 2 2 2 2 3 4 10 6 11 14 17 16 25 16 16 13
5 5 7 7 7 6 5 2 5 6 4 3 4 4 10 7 3 4 6 7 8 2 5 2 3 2 4 1 2 5 7 8 4 1 9 6 10 10 15 15 22 13 7 7
5 6 6 5 6 7 3 3 3 8 4 4 5 3 4 10 4 2 5 7 8 4 4 1 4 1 3 1 1 4 2 6 6 1 4 7 9 9 13 14 18 14 9 7
4 5 5 4 6 10 7 2 6 2 4 5 4 3 4 10 3 3 4 4 4 3 3 2 2 4 5 1 6 4 3 2 6 4 1 5 6 10 12 10 13 16 14 11
3 6 6 4 5 4 2 5 5 5 4 3 2 4 5 8 4 5 4 4 3 3 4 4 4 2 3 7 5 5 5 6 6 7 6 7 6 10 12 11 12 12 13 14
4 5 6 5 2 12 7 3 5 5 5 6 5 8 8 5 3 5 4 5 4 4 5 5 4 4 5 9 3 4 5 6 10 8 8 9 7 6 9 10 10 10 9 9
5 6 2 6 5 5 4 5 7 8 7 7 6 11 9 7 6 4 5 3 4 3 4 7 4 3 4 4 2 4 8 7 3 7 5 7 7 8 9 7 9 9 10 9
6 5 7 4 4 6 8 6 6 4 5 9 9 10 11 1 2 3 1 3 1 4 6 4 1 4 7 5 2 1 5 6 8 4 5 7 4 5 5 6 8 9 8 8
7 6 4 4 5 2 7 5 8 3 6 14 15 16 6 2 5 1 1 4 4 5 4 3 2 3 7 4 2 3 3 2 7 8 4 2 4 6 5 4 6 9 7 2
6 5 4 5 5 4 3 4 5 8 2 7 4 3 3 3 5 2 6 2 7 4 2 3 5 12 6 3 4 5 12 2 5 7 6 1 7 6 13 6 5 6 8 4
5 3 4 2 11 15 12 13 2 3 10 10 5 5 4 4 3 4 5 2 4 4 2 4 3 6 6 5 5 8 6 4 9 3 5 12 2 5 6 12 7 6 8 9
5 6 8 11 7 3 10 3 7 11 9 7 5 3 3 1 2 2 1 4 5 2 3 4 4 3 5 4 5 1 5 5 5 6 5 4 4 4 4 6 11 8 9 10
6 3 4 2 3 3 5 9 11 10 10 6 3 5 7 5 4 4 4 2 4 5 4 5 5 3 3 4 5 5 5 3 3 5 5 4 5 10 7 5 14 9 7 8
Wind_Direction
333 335 337 334 337 333 327 289 302 15 297 255 274 46 19 313 26 22 343 296 297 306 320 301 297 289 313 28 332 311 280 289 286 270 273 263 247 259 243 246 239 266 252 254
337 339 340 333 339 357 318 278 35 37 312 317 49 94 96 50 8 16 14 334 15 341 316 317 296 307 323 16 357 354 316 264 271 258 272 269 230 233 255 249 250 251 235 247
341 338 338 332 332 339 316 282 332 85 47 16 352 341 59 53 69 64 349 326 320 340 311 263 262 278 283 34 293 350 316 275 276 279 258 342 292 239 252 250 243 243 250 245
342 342 340 334 329 332 296 317 51 337 7 33 40 8 6 41 7 2 9 200 15 1 324 333 300 331 325 304 311 296 254 264 267 275 287 295 286 286 288 257 251 249 244 245
343 346 341 334 333 330 274 344 341 92 52 70 61 61 43 19 357 333 7 347 351 336 313 301 310 300 299 303 295 221 304 286 273 258 271 287 275 264 264 279 243 249 261 287
346 351 344 338 342 332 41 23 296 288 137 26 29 38 17 355 339 297 32 349 342 315 340 318 301 295 282 264 247 267 246 262 284 261 268 283 259 254 245 262 273 276 262 270
353 350 349 343 345 352 1 24 302 41 96 75 48 7 290 316 337 307 299 330 295 320 325 300 284 266 262 256 266 248 206 214 230 275 296 251 263 260 263 252 261 259 266 275
356 347 350 344 345 347 352 12 331 353 41 41 62 17 346 341 273 230 338 21 15 332 307 297 289 257 267 252 241 246 240 201 227 235 265 272 293 247 342 327 242 238 287 310
352 346 346 346 337 340 308 55 322 338 344 46 322 298 63 338 3 17 93 39 22 346 320 284 300 341 359 356 304 247 270 267 210 227 241 267 261 50 5 346 265 289 358 324
349 348 347 340 329 339 327 68 354 289 315 75 8 37 8 332 28 301 348 344 345 19 8 323 342 353 309 339 311 336 304 266 238 239 249 252 270 44 333 258 302 351 352 345
345 352 343 323 319 332 323 71 20 332 334 31 21 49 2 355 118 356 360 274 317 21 18 357 10 337 4 299 305 319 308 314 246 226 244 255 11 187 222 351 338 321 331 330
333 359 332 305 302 312 329 308 86 340 274 350 330 25 23 7 50 341 319 28 17 78 81 42 343 313 319 319 310 349 323 7 311 297 316 334 354 333 328 329 316 307 309 312
323 356 308 281 268 283 288 321 354 284 280 256 269 203 201 40 73 57 3 265 94 318 54 95 190 271 51 319 355 305 294 16 290 325 350 336 323 312 312 323 302 289 285 288
306 327 296 282 267 265 279 283 321 292 296 292 254 232 217 344 114 203 8 267 295 151 155 154 175 233 139 241 292 261 276 307 295 268 300 321 334 331 327 327 292 272 269 266
301 306 292 267 262 259 272 270 287 301 316 307 302 240 245 188 189 233 18 311 242 237 196 173 221 163 199 190 238 239 231 263 314 300 312 287 295 312 322 316 322 237 224 251
301 300 289 259 251 261 267 281 104 24 349 296 279 204 196 153 219 190 230 267 286 216 254 188 205 207 199 224 219 255 202 193 180 245 325 306 335 310 341 342 334 15 91 95
302 305 307 253 231 251 270 332 26 347 321 253 281 203 182 170 182 219 259 261 264 262 234 329 208 198 189 335 232 291 56 195 157 189 338 357 355 339 353 356 349 356 29 41
289 284 274 252 252 271 258 305 163 276 263 261 265 262 150 172 172 212 203 245 216 236 227 312 91 12 22 280 295 57 101 155 130 163 110 84 16 1 1 10 10 0 4 7
260 265 264 240 225 233 104 137 173 218 263 287 266 289 309 178 201 180 200 226 220 222 206 187 110 152 227 229 335 23 52 25 8 117 91 122 52 38 10 20 21 15 358 356
249 236 211 213 140 117 145 176 182 202 211 222 240 237 263 203 203 203 173 196 224 206 211 158 166 216 225 261 42 56 84 44 10 39 30 18 75 44 43 36 34 10 6 359
216 219 267 77 129 227 227 242 214 184 203 207 219 221 232 203 192 222 190 212 201 195 223 204 182 121 211 114 2 90 100 108 109 34 42 41 44 25 33 75 67 35 18 24
327 299 269 163 220 219 243 230 225 197 277 176 239 214 210 242 124 170 227 249 283 256 227 91 90 124 119 97 109 129 151 142 142 149 71 68 25 83 57 43 107 74 41 15
254 216 232 218 242 333 241 325 344 134 275 349 16 20 357 55 23 336 328 250 213 244 61 166 103 141 130 92 343 69 86 342 99 158 95 57 36 56 107 82 67 118 106 61
248 212 280 250 223 46 266 330 51 312 323 360 40 111 83 36 66 241 269 6 244 86 100 45 39 312 70 57 0 358 97 48 15 87 115 131 28 6 124 127 72 74 95 146
258 222 250 359 343 354 345 35 274 255 360 19 15 62 29 52 79 242 291 290 18 73 75 78 190 67 57 29 1 337 3 34 96 2 56 86 169 1 60 130 133 100 90 87
241 246 296 320 296 313 356 281 3 10 24 79 62 60 12 41 259 260 331 339 19 32 25 28 106 83 46 9 338 4 318 351 12 32 46 25 85 294 58 95 138 120 98 94
234 240 21 162 82 172 198 28 19 28 31 36 11 340 12 347 318 17 59 157 259 334 358 27 67 60 32 6 319 331 330 356 345 333 45 352 354 99 296 357 119 121 121 131